Time,TemperatureF,DewpointF,PressureIn,WindDirection,WindDirectionDegrees,WindSpeedMPH,WindSpeedGustMPH,Humidity,HourlyPrecipIn,Conditions,Clouds,dailyrainin,SoftwareType,DateUTC
2013-03-05 00:01:00,34.0,30.0,29.95,NW,321,9.0,13.0,86,0.01,,,0.02,,2013-03-05 06:01:00,
2013-03-05 00:11:00,34.0,30.0,29.95,NW,321,9.0,13.0,86,0.01,,,0.02,,2013-03-05 06:11:00,
2013-03-05 00:22:00,34.0,30.0,29.97,NW,313,4.0,11.0,86,0.01,,,0.02,,2013-03-05 06:22:00,
2013-03-05 00:32:00,34.0,30.0,29.96,NNW,348,4.0,9.0,86,0.01,,,0.02,,2013-03-05 06:32:00,
2013-03-05 00:41:00,34.0,30.0,29.96,NNW,348,4.0,9.0,86,0.01,,,0.02,,2013-03-05 06:41:00,
2013-03-05 00:52:00,34.0,31.0,29.93,NW,314,8.0,12.0,87,0.00,,,0.02,,2013-03-05 06:52:00,
2013-03-05 01:01:00,34.0,31.0,29.95,NW,315,5.0,10.0,87,0.00,,,0.02,,2013-03-05 07:01:00,
2013-03-05 01:11:00,34.0,31.0,29.95,NW,315,5.0,10.0,87,0.00,,,0.02,,2013-03-05 07:11:00,
2013-03-05 01:21:00,34.0,31.0,29.98,WNW,282,3.0,8.0,87,0.00,,,0.02,,2013-03-05 07:21:00,
2013-03-05 01:31:00,34.0,31.0,29.96,NW,313,6.0,11.0,88,0.00,,,0.02,,2013-03-05 07:31:00,
2013-03-05 01:41:00,34.0,31.0,29.96,NW,313,6.0,11.0,88,0.00,,,0.02,,2013-03-05 07:41:00,
2013-03-05 01:52:00,34.0,31.0,29.97,SSE,156,4.0,10.0,88,0.00,,,0.02,,2013-03-05 07:52:00,
2013-03-05 02:02:00,34.0,31.0,29.98,NNW,329,6.0,17.0,88,0.00,,,0.02,,2013-03-05 08:02:00,
2013-03-05 02:11:00,34.0,31.0,29.98,NNW,329,6.0,17.0,88,0.00,,,0.02,,2013-03-05 08:11:00,
2013-03-05 02:21:00,34.0,31.0,29.98,NW,316,11.0,22.0,87,0.00,,,0.02,,2013-03-05 08:21:00,
2013-03-05 02:31:00,34.0,31.0,29.99,WNW,302,13.0,23.0,87,0.00,,,0.02,,2013-03-05 08:31:00,
2013-03-05 02:41:00,34.0,31.0,29.99,WNW,302,13.0,23.0,87,0.00,,,0.02,,2013-03-05 08:41:00,
2013-03-05 02:52:00,34.0,29.0,29.98,NW,318,12.0,24.0,83,0.00,,,0.02,,2013-03-05 08:52:00,
2013-03-05 03:01:00,34.0,28.0,29.98,NW,319,12.0,23.0,79,0.00,,,0.02,,2013-03-05 09:01:00,
2013-03-05 03:11:00,34.0,28.0,29.99,NW,314,13.0,19.0,77,0.00,,,0.02,,2013-03-05 09:11:00,
2013-03-05 03:21:00,34.0,28.0,29.99,NW,314,13.0,19.0,77,0.00,,,0.02,,2013-03-05 09:21:00,
2013-03-05 03:31:00,34.0,27.0,30.01,NNW,327,7.0,22.0,75,0.00,,,0.02,,2013-03-05 09:31:00,
2013-03-05 03:42:00,34.0,27.0,30.01,NNW,327,7.0,22.0,75,0.00,,,0.02,,2013-03-05 09:42:00,
2013-03-05 03:52:00,34.0,26.0,30.01,WNW,301,6.0,16.0,71,0.00,,,0.02,,2013-03-05 09:52:00,
2013-03-05 04:01:00,34.0,24.0,30.02,SSE,151,5.0,19.0,67,0.00,,,0.02,,2013-03-05 10:01:00,
2013-03-05 04:11:00,34.0,24.0,30.02,SSE,151,5.0,19.0,67,0.00,,,0.02,,2013-03-05 10:11:00,
2013-03-05 04:21:00,34.0,24.0,30.01,NW,312,12.0,14.0,67,0.00,,,0.02,,2013-03-05 10:21:00,
2013-03-05 04:32:00,33.0,24.0,30.02,NE,44,12.0,15.0,69,0.00,,,0.02,,2013-03-05 10:32:00,
2013-03-05 04:42:00,33.0,24.0,30.02,NE,44,12.0,15.0,69,0.00,,,0.02,,2013-03-05 10:42:00,
2013-03-05 04:51:00,32.0,21.0,30.04,South,182,4.0,14.0,64,0.00,,,0.02,,2013-03-05 10:51:00,
2013-03-05 05:01:00,32.0,21.0,30.05,SSW,202,3.0,18.0,63,0.00,,,0.02,,2013-03-05 11:01:00,
2013-03-05 05:11:00,31.0,19.0,30.05,NW,320,21.0,29.0,60,0.00,,,0.02,,2013-03-05 11:11:00,
2013-03-05 05:22:00,31.0,19.0,30.05,NW,320,21.0,29.0,60,0.00,,,0.02,,2013-03-05 11:22:00,
2013-03-05 05:32:00,30.0,17.0,30.07,East,81,19.0,22.0,59,0.01,,,0.03,,2013-03-05 11:32:00,
2013-03-05 05:42:00,30.0,17.0,30.07,East,81,19.0,22.0,59,0.01,,,0.03,,2013-03-05 11:42:00,
2013-03-05 05:52:00,30.0,18.0,30.06,NW,310,9.0,12.0,61,0.01,,,0.03,,2013-03-05 11:52:00,
2013-03-05 06:02:00,29.0,18.0,30.08,SSE,157,4.0,16.0,63,0.01,,,0.03,,2013-03-05 12:02:00,
2013-03-05 06:11:00,29.0,18.0,30.08,SSE,157,4.0,16.0,63,0.01,,,0.03,,2013-03-05 12:11:00,
2013-03-05 06:22:00,28.0,17.0,30.07,ENE,58,4.0,16.0,64,0.01,,,0.03,,2013-03-05 12:22:00,
2013-03-05 06:32:00,28.0,17.0,30.08,WNW,290,11.0,21.0,63,0.00,,,0.03,,2013-03-05 12:32:00,
2013-03-05 06:42:00,28.0,17.0,30.08,WNW,290,11.0,21.0,63,0.00,,,0.03,,2013-03-05 12:42:00,
2013-03-05 06:52:00,27.0,15.0,30.08,NNW,334,3.0,17.0,61,0.00,,,0.03,,2013-03-05 12:52:00,
2013-03-05 07:02:00,27.0,15.0,30.09,NW,312,14.0,19.0,61,0.00,,,0.03,,2013-03-05 13:02:00,
2013-03-05 07:11:00,27.0,15.0,30.09,NW,312,14.0,19.0,61,0.00,,,0.03,,2013-03-05 13:11:00,
2013-03-05 07:21:00,27.0,16.0,30.09,NW,312,7.0,7.0,62,0.00,,,0.03,,2013-03-05 13:21:00,
2013-03-05 07:32:00,28.0,16.0,30.09,NNW,347,4.0,19.0,60,0.00,,,0.03,,2013-03-05 13:32:00,
2013-03-05 07:42:00,28.0,16.0,30.09,NNW,347,4.0,19.0,60,0.00,,,0.03,,2013-03-05 13:42:00,
2013-03-05 07:52:00,29.0,16.0,30.10,WNW,303,6.0,15.0,57,0.00,,,0.03,,2013-03-05 13:52:00,
2013-03-05 08:02:00,30.0,15.0,30.11,West,279,4.0,21.0,54,0.00,,,0.03,,2013-03-05 14:02:00,
2013-03-05 08:11:00,30.0,15.0,30.11,West,279,4.0,21.0,54,0.00,,,0.03,,2013-03-05 14:11:00,
2013-03-05 08:21:00,31.0,15.0,30.11,North,1,12.0,19.0,52,0.00,,,0.03,,2013-03-05 14:21:00,
2013-03-05 08:32:00,31.0,15.0,30.11,South,169,5.0,22.0,51,0.00,,,0.03,,2013-03-05 14:32:00,
2013-03-05 08:42:00,31.0,15.0,30.11,South,169,5.0,22.0,51,0.00,,,0.03,,2013-03-05 14:42:00,
2013-03-05 08:52:00,31.0,15.0,30.13,WNW,292,7.0,22.0,50,0.00,,,0.03,,2013-03-05 14:52:00,
2013-03-05 09:01:00,31.0,15.0,30.12,NNE,19,9.0,18.0,51,0.00,,,0.03,,2013-03-05 15:01:00,
2013-03-05 09:11:00,31.0,15.0,30.12,NNE,19,9.0,18.0,51,0.00,,,0.03,,2013-03-05 15:11:00,
2013-03-05 09:21:00,32.0,16.0,30.14,West,262,5.0,17.0,51,0.00,,,0.03,,2013-03-05 15:21:00,
2013-03-05 09:32:00,33.0,16.0,30.12,SW,229,9.0,16.0,49,0.00,,,0.03,,2013-03-05 15:32:00,
2013-03-05 09:42:00,33.0,16.0,30.12,SW,229,9.0,16.0,49,0.00,,,0.03,,2013-03-05 15:42:00,
2013-03-05 09:52:00,31.0,15.0,30.13,WSW,239,6.0,14.0,52,0.00,,,0.03,,2013-03-05 15:52:00,
2013-03-05 10:01:00,30.0,16.0,30.13,West,263,11.0,15.0,55,0.00,,,0.03,,2013-03-05 16:01:00,
2013-03-05 10:11:00,30.0,16.0,30.13,West,263,11.0,15.0,55,0.00,,,0.03,,2013-03-05 16:11:00,
2013-03-05 10:21:00,30.0,17.0,30.14,WNW,300,18.0,18.0,57,0.00,,,0.03,,2013-03-05 16:21:00,
2013-03-05 10:32:00,30.0,17.0,30.13,WNW,294,6.0,13.0,57,0.00,,,0.03,,2013-03-05 16:32:00,
2013-03-05 10:42:00,30.0,17.0,30.13,WNW,294,6.0,13.0,57,0.00,,,0.03,,2013-03-05 16:42:00,
2013-03-05 10:52:00,30.0,17.0,30.14,NW,321,16.0,22.0,57,0.00,,,0.03,,2013-03-05 16:52:00,
2013-03-05 11:01:00,31.0,18.0,30.12,ENE,75,11.0,18.0,57,0.00,,,0.03,,2013-03-05 17:01:00,
2013-03-05 11:11:00,31.0,18.0,30.12,ENE,75,11.0,18.0,57,0.00,,,0.03,,2013-03-05 17:11:00,
2013-03-05 11:21:00,33.0,18.0,30.13,East,99,5.0,20.0,53,0.00,,,0.03,,2013-03-05 17:21:00,
2013-03-05 11:32:00,32.0,18.0,30.13,North,4,20.0,25.0,56,0.00,,,0.03,,2013-03-05 17:32:00,
2013-03-05 11:41:00,32.0,18.0,30.13,North,4,20.0,25.0,56,0.00,,,0.03,,2013-03-05 17:41:00,
2013-03-05 11:52:00,33.0,19.0,30.15,ENE,69,8.0,17.0,57,0.00,,,0.03,,2013-03-05 17:52:00,
2013-03-05 12:01:00,34.0,20.0,30.14,NE,50,5.0,15.0,55,0.00,,,0.03,,2013-03-05 18:01:00,
2013-03-05 12:11:00,34.0,20.0,30.14,NE,50,5.0,15.0,55,0.00,,,0.03,,2013-03-05 18:11:00,
2013-03-05 12:21:00,34.0,20.0,30.14,SSE,160,4.0,21.0,55,0.00,,,0.03,,2013-03-05 18:21:00,
2013-03-05 12:32:00,33.0,19.0,30.14,SE,138,5.0,17.0,55,0.00,,,0.03,,2013-03-05 18:32:00,
2013-03-05 12:42:00,33.0,19.0,30.14,SE,138,5.0,17.0,55,0.00,,,0.03,,2013-03-05 18:42:00,
2013-03-05 12:53:00,34.0,19.0,30.14,ESE,111,7.0,14.0,54,0.00,,,0.03,,2013-03-05 18:53:00,
2013-03-05 13:01:00,34.0,19.0,30.14,NE,43,7.0,23.0,54,0.00,,,0.03,,2013-03-05 19:01:00,
2013-03-05 13:11:00,34.0,19.0,30.14,NE,43,7.0,23.0,54,0.00,,,0.03,,2013-03-05 19:11:00,
2013-03-05 13:21:00,34.0,19.0,30.14,East,93,7.0,20.0,54,0.00,,,0.03,,2013-03-05 19:21:00,
2013-03-05 13:32:00,34.0,19.0,30.16,NE,53,7.0,20.0,54,0.00,,,0.03,,2013-03-05 19:32:00,
2013-03-05 13:42:00,34.0,19.0,30.16,NE,53,7.0,20.0,54,0.00,,,0.03,,2013-03-05 19:42:00,
2013-03-05 13:52:00,34.0,20.0,30.15,South,171,5.0,15.0,55,0.00,,,0.03,,2013-03-05 19:52:00,
2013-03-05 14:01:00,34.0,20.0,30.15,NNW,335,19.0,24.0,55,0.00,,,0.03,,2013-03-05 20:01:00,
2013-03-05 14:11:00,34.0,20.0,30.16,North,353,13.0,18.0,55,0.00,,,0.03,,2013-03-05 20:11:00,
2013-03-05 14:21:00,34.0,20.0,30.16,North,353,13.0,18.0,55,0.00,,,0.03,,2013-03-05 20:21:00,
2013-03-05 14:32:00,34.0,20.0,30.16,SSW,195,6.0,21.0,55,0.00,,,0.03,,2013-03-05 20:32:00,
2013-03-05 14:41:00,34.0,20.0,30.16,SSW,195,6.0,21.0,55,0.00,,,0.03,,2013-03-05 20:41:00,
2013-03-05 14:52:00,33.0,19.0,30.16,SSE,168,4.0,23.0,56,0.00,,,0.03,,2013-03-05 20:52:00,
2013-03-05 15:01:00,34.0,20.0,30.17,SSW,192,8.0,20.0,55,0.00,,,0.03,,2013-03-05 21:01:00,
2013-03-05 15:11:00,34.0,20.0,30.17,SSW,192,8.0,20.0,55,0.00,,,0.03,,2013-03-05 21:11:00,
2013-03-05 15:21:00,33.0,19.0,30.19,ENE,68,13.0,21.0,56,0.00,,,0.03,,2013-03-05 21:21:00,
2013-03-05 15:31:00,33.0,20.0,30.19,NW,315,15.0,21.0,58,0.00,,,0.03,,2013-03-05 21:31:00,
2013-03-05 15:41:00,33.0,20.0,30.19,NW,315,15.0,21.0,58,0.00,,,0.03,,2013-03-05 21:41:00,
2013-03-05 15:52:00,33.0,19.0,30.19,West,265,5.0,26.0,57,0.00,,,0.03,,2013-03-05 21:52:00,
2013-03-05 16:01:00,33.0,19.0,30.18,North,349,23.0,23.0,56,0.00,,,0.03,,2013-03-05 22:01:00,
2013-03-05 16:11:00,33.0,19.0,30.18,North,349,23.0,23.0,56,0.00,,,0.03,,2013-03-05 22:11:00,
2013-03-05 16:21:00,33.0,19.0,30.20,NW,315,12.0,16.0,57,0.00,,,0.03,,2013-03-05 22:21:00,
2013-03-05 16:32:00,33.0,19.0,30.22,WNW,296,12.0,23.0,57,0.00,,,0.03,,2013-03-05 22:32:00,
2013-03-05 16:41:00,33.0,19.0,30.22,WNW,296,12.0,23.0,57,0.00,,,0.03,,2013-03-05 22:41:00,
2013-03-05 16:52:00,33.0,20.0,30.21,SSE,165,4.0,25.0,58,0.00,,,0.03,,2013-03-05 22:52:00,
2013-03-05 17:01:00,32.0,19.0,30.21,ENE,66,3.0,13.0,58,0.00,,,0.03,,2013-03-05 23:01:00,
2013-03-05 17:11:00,32.0,19.0,30.21,ENE,66,3.0,13.0,58,0.00,,,0.03,,2013-03-05 23:11:00,
2013-03-05 17:21:00,32.0,19.0,30.22,NW,304,15.0,22.0,57,0.00,,,0.03,,2013-03-05 23:21:00,
2013-03-05 17:32:00,32.0,19.0,30.23,West,271,3.0,17.0,57,0.00,,,0.03,,2013-03-05 23:32:00,
2013-03-05 17:41:00,32.0,19.0,30.23,West,271,3.0,17.0,57,0.00,,,0.03,,2013-03-05 23:41:00,
2013-03-05 17:52:00,31.0,18.0,30.23,WNW,303,10.0,20.0,58,0.00,,,0.03,,2013-03-05 23:52:00,
2013-03-05 18:01:00,31.0,17.0,30.23,NW,322,24.0,31.0,56,0.00,,,0.03,,2013-03-06 00:01:00,
2013-03-05 18:11:00,31.0,17.0,30.23,NW,322,24.0,31.0,56,0.00,,,0.03,,2013-03-06 00:11:00,
2013-03-05 18:21:00,30.0,17.0,30.24,WNW,300,8.0,23.0,57,0.00,,,0.03,,2013-03-06 00:21:00,
2013-03-05 18:32:00,30.0,17.0,30.23,NW,307,12.0,15.0,58,0.00,,,0.03,,2013-03-06 00:32:00,
2013-03-05 18:41:00,30.0,17.0,30.23,NW,307,12.0,15.0,58,0.00,,,0.03,,2013-03-06 00:41:00,
2013-03-05 18:52:00,30.0,17.0,30.25,NNW,333,9.0,16.0,59,0.00,,,0.03,,2013-03-06 00:52:00,
2013-03-05 19:01:00,29.0,16.0,30.26,NW,311,12.0,19.0,59,0.00,,,0.03,,2013-03-06 01:01:00,
2013-03-05 19:11:00,29.0,16.0,30.26,NW,311,12.0,19.0,59,0.00,,,0.03,,2013-03-06 01:11:00,
2013-03-05 19:21:00,29.0,16.0,30.26,NW,322,4.0,18.0,59,0.00,,,0.03,,2013-03-06 01:21:00,
2013-03-05 19:32:00,29.0,16.0,30.26,NW,317,10.0,22.0,59,0.00,,,0.03,,2013-03-06 01:32:00,
2013-03-05 19:41:00,29.0,16.0,30.26,NW,317,10.0,22.0,59,0.00,,,0.03,,2013-03-06 01:41:00,
2013-03-05 19:52:00,29.0,16.0,30.27,NW,320,12.0,16.0,59,0.00,,,0.03,,2013-03-06 01:52:00,
2013-03-05 20:01:00,29.0,17.0,30.27,NW,318,9.0,13.0,60,0.00,,,0.03,,2013-03-06 02:01:00,
2013-03-05 20:11:00,29.0,17.0,30.27,NW,318,9.0,13.0,60,0.00,,,0.03,,2013-03-06 02:11:00,
2013-03-05 20:22:00,29.0,17.0,30.28,NW,317,9.0,15.0,60,0.00,,,0.03,,2013-03-06 02:22:00,
2013-03-05 20:31:00,29.0,16.0,30.28,NNW,332,4.0,11.0,59,0.00,,,0.03,,2013-03-06 02:31:00,
2013-03-05 20:41:00,29.0,16.0,30.28,NNW,332,4.0,11.0,59,0.00,,,0.03,,2013-03-06 02:41:00,
2013-03-05 20:52:00,29.0,17.0,30.28,NNW,327,7.0,19.0,60,0.00,,,0.02,,2013-03-06 02:52:00,
2013-03-05 21:01:00,29.0,17.0,30.29,NNW,329,13.0,17.0,60,0.00,,,0.02,,2013-03-06 03:01:00,
2013-03-05 21:11:00,29.0,17.0,30.29,NNW,329,13.0,17.0,60,0.00,,,0.02,,2013-03-06 03:11:00,
2013-03-05 21:21:00,29.0,17.0,30.29,NW,317,14.0,19.0,60,0.00,,,0.02,,2013-03-06 03:21:00,
2013-03-05 21:32:00,29.0,16.0,30.30,NNW,329,11.0,22.0,58,0.00,,,0.02,,2013-03-06 03:32:00,
2013-03-05 21:41:00,29.0,16.0,30.30,NNW,329,11.0,22.0,58,0.00,,,0.02,,2013-03-06 03:41:00,
2013-03-05 21:52:00,28.0,16.0,30.31,North,358,5.0,14.0,59,0.00,,,0.01,,2013-03-06 03:52:00,
2013-03-05 22:02:00,28.0,16.0,30.31,NNW,331,11.0,15.0,60,0.00,,,0.01,,2013-03-06 04:02:00,
2013-03-05 22:11:00,28.0,16.0,30.31,NNW,331,11.0,15.0,60,0.00,,,0.01,,2013-03-06 04:11:00,
2013-03-05 22:21:00,28.0,15.0,30.31,NNW,334,13.0,17.0,58,0.00,,,0.01,,2013-03-06 04:21:00,
2013-03-05 22:32:00,28.0,16.0,30.32,North,351,4.0,10.0,59,0.00,,,0.01,,2013-03-06 04:32:00,
2013-03-05 22:41:00,28.0,16.0,30.32,North,351,4.0,10.0,59,0.00,,,0.01,,2013-03-06 04:41:00,
2013-03-05 22:52:00,28.0,15.0,30.32,NW,320,6.0,12.0,58,0.00,,,0.01,,2013-03-06 04:52:00,
2013-03-05 23:01:00,28.0,16.0,30.32,North,8,4.0,11.0,59,0.00,,,0.01,,2013-03-06 05:01:00,
2013-03-05 23:11:00,28.0,16.0,30.32,NNW,344,7.0,19.0,59,0.00,,,0.01,,2013-03-06 05:11:00,
2013-03-05 23:22:00,28.0,16.0,30.32,NNW,344,7.0,19.0,59,0.00,,,0.01,,2013-03-06 05:22:00,
2013-03-05 23:32:00,28.0,16.0,30.32,NNW,333,5.0,15.0,61,0.00,,,0.01,,2013-03-06 05:32:00,
2013-03-05 23:42:00,28.0,16.0,30.32,NNW,333,5.0,15.0,61,0.00,,,0.01,,2013-03-06 05:42:00,
2013-03-05 23:52:00,27.0,15.0,30.32,NW,322,9.0,18.0,61,0.00,,,0.01,,2013-03-06 05:52:00,